Regional Weather Roundup
Issued by NWS Albany, NY

Home | Current Version | Previous Version | Text Only | Print | Product List | Glossary On
Versions: 1 2 3 4 5 6 7 8 9 10 11 12 13 14 15 16 17 18 19 20 21 22 23 24 25 26 27 28 29 30 31 32 33 34 35 36 37 38 39 40 41 42 43 44 45 46 47 48 49 50
000
ASUS41 KALY 311010
RWRALY

NEW YORK STATE HOURLY WEATHER ROUNDUP
NATIONAL WEATHER SERVICE ALBANY NY
500 AM EST SAT JAN 31 2015

NOTE: "FAIR" INDICATES FEW OR NO CLOUDS BELOW 12,000 FEET WITH NO
SIGNIFICANT WEATHER AND/OR NO OBSTRUCTIONS TO VISIBILITY.

NYZ032-033-038>043-046>054-057>066-NYZ062>081-311100-
EAST


CITY           SKY/WX    TMP DP  RH WIND       PRES   REMARKS
ALBANY         PTCLDY     2 -10  57 W18       30.14R WCI -19
GLENS FALLS    CLEAR      1 -12  54 NW12      30.12R WCI -16
POUGHKEEPSIE   CLEAR     12 -10  36 NW14      30.09R WCI  -3
MONTGOMERY     CLEAR      9  -8  46 VRB7G20   30.09S WCI  -2
WHITE PLAINS   FAIR      11  -6  46 NW25G37   29.99S WCI -10
ISLIP          CLEAR     15  -3  44 NW28G37   29.97R WCI  -5
NEW YORK CITY  PTCLDY    16   3  56 NW18G35   30.07R WCI   0
CENTRAL PARK   CLEAR     15  -3  44 NW18G32   30.11R WCI  -2
$$

NYZ005>009-017-018-044>046-055-056-311100-
CENTRAL


CITY           SKY/WX    TMP DP  RH WIND       PRES   REMARKS
FULTON         CLEAR      3  -5  69 NW7       30.29S WCI  -9
SYRACUSE       CLOUDY    -1  -5  82 N5        30.29S WCI -11
ROME           PTCLDY    -6 -12  75 NW6       30.29R WCI -19
ELMIRA         CLOUDY     6  -2  69 W6        30.25F WCI  -4
BINGHAMTON     LGT SNOW   4  -1  80 NW9G21    30.10R WCI -10
MONTICELLO     CLEAR      3  -6  66 NW17G29   30.02R WCI -17
$$

NYZ026>034-041>043-311100-
NORTH


CITY           SKY/WX    TMP DP  RH WIND       PRES   REMARKS
WATERTOWN      PTCLDY   -19 -27  66 CALM      30.32S
FORT DRUM      NOT AVBL
MASSENA        PTCLDY    -7 -16  65 W8        30.30S WCI -23
SARANAC LAKE   CLOUDY   -11 -16  78 W5        30.05S HAZE    WCI -23
PLATTSBURGH    CLEAR     -4 -13  65 NW3       30.17R
$$

NYZ001>004-010>016-019>021-311100-
WEST


CITY           SKY/WX    TMP DP  RH WIND       PRES   REMARKS
NIAGARA FALLS  CLOUDY     5   1  83 S3        30.32F
BUFFALO        FLURRIES   6   2  83 CALM      30.31F
DUNKIRK        LGT SNOW  11   8  88 S3        30.32F FOG
JAMESTOWN      CLOUDY     9   3  78 SW3       30.20F
WELLSVILLE     MOCLDY     4  -1  80 NW13      30.15F WCI -13
ROCHESTER      FLURRIES   2  -2  83 W6        30.31S WCI  -9
PENN YAN       CLOUDY     5  -3  69 W5        30.25F WCI  -4
$$

             KEY
       WCI = WIND CHILL INDEX
       VSB = VISIBILITY
       HX  = HEAT INDEX
$$



USA.gov is the U.S. government's official web portal to all federal, state and local government web resources and services.